Location: Luxembourg
(49.6117°N, 6.1300°E)
Time: 07:44:08
(UTC+01:00)

Envisat - Visible Passes

Search period start: 01 December 2021 00:00
Search period end: 11 December 2021 00:00
Orbit: 764 x 766 km, 98.2° (Epoch: 30 November)

Date Brightness Start Highest point End Pass type
(mag) Time Alt. Az. Time Alt. Az. Time Alt. Az.
01 Dec 4.4 05:04:49 10° NNE 05:09:33 37° E 05:14:14 10° SSE visible
01 Dec 3.5 06:43:57 10° N 06:48:32 35° WNW 06:53:07 10° SW visible
01 Dec 5.9 18:04:47 10° SW 18:08:05 17° W 18:11:24 10° NW visible
02 Dec 5.5 04:28:46 10° NE 04:32:20 19° E 04:35:53 10° SE visible
02 Dec 2.9 06:06:47 10° N 06:11:52 68° WNW 06:16:53 10° SSW visible
02 Dec 4.9 17:26:15 10° SSW 17:30:51 34° W 17:35:28 10° NNW visible
03 Dec 3.4 05:29:55 10° NNE 05:34:59 61° E 05:40:00 10° S visible
03 Dec 4.0 07:09:40 10° N 07:13:36 23° WNW 07:17:32 10° WSW visible
04 Dec 4.8 04:53:25 10° NNE 04:57:54 30° E 05:02:21 10° SSE visible
04 Dec 3.3 06:32:16 10° N 06:37:03 42° WNW 06:41:49 10° SW visible
04 Dec 5.7 17:52:35 10° SW 17:56:23 21° W 18:00:14 10° NW visible
05 Dec 5.8 04:17:42 10° NE 04:20:37 15° E 04:23:33 10° ESE visible
05 Dec 2.9 05:55:12 10° NNE 06:00:19 84° WNW 06:05:24 10° SSW visible
05 Dec 4.5 07:35:42 10° NNW 07:38:35 15° NW 07:41:28 10° W visible
05 Dec 4.5 17:14:25 10° SSW 17:19:13 42° W 17:24:02 10° NNW visible
06 Dec 3.8 05:18:26 10° NNE 05:23:23 49° E 05:28:18 10° S visible
06 Dec 3.8 06:57:54 10° N 07:02:10 28° WNW 07:06:24 10° WSW visible
06 Dec 6.1 18:19:47 10° WSW 18:22:03 13° W 18:24:19 10° WNW visible
07 Dec 5.1 04:42:05 10° NE 04:46:15 25° E 04:50:22 10° SSE visible
07 Dec 3.1 06:20:37 10° N 06:25:33 52° WNW 06:30:28 10° SW visible
07 Dec 5.4 17:40:30 10° SSW 17:44:43 26° W 17:48:58 10° NW visible
08 Dec 6.0 04:06:56 10° ENE 04:08:54 12° E 04:10:52 10° ESE visible
08 Dec 3.0 05:43:38 10° NNE 05:48:45 80° ESE 05:53:50 10° SSW visible
08 Dec 4.3 07:23:46 10° NNW 07:27:11 18° WNW 07:30:35 10° W visible
09 Dec 4.3 05:06:58 10° NNE 05:11:46 40° E 05:16:30 10° SSE visible
09 Dec 3.6 06:46:11 10° N 06:50:42 33° WNW 06:55:12 10° SW visible
09 Dec 5.9 18:07:13 10° SW 18:10:20 16° W 18:13:26 10° NW visible
10 Dec 5.4 04:30:50 10° NE 04:34:34 20° E 04:38:16 10° SE visible
10 Dec 2.9 06:08:59 10° N 06:14:02 64° WNW 06:19:03 10° SSW visible
10 Dec 5.0 17:28:33 10° SSW 17:33:04 32° W 17:37:37 10° NNW visible
